Location: McKinney
(33.1972°N, 96.6398°W)
Time: 13:45:58
(UTC-05:00)

ISS - Pass Details

Date: 05 May 2019
Orbit: 407 x 410 km, 51.6° (Epoch: 20 May)

Event Time Altitude Azimuth Distance (km) Brightness Sun altitude
Exits shadow 03:30:37 10° 31° (NNE) 1,469 -0.1 -32.0°
Drops below altitude 10° 03:30:37 10° 31° (NNE) 1,473 -0.1 -32.0°
Sets 03:32:49 0° 39° (NE) 2,337 1.2 -31.7°
